TimeEDT,TemperatureF,Dew PointF,Humidity,Sea Level PressureIn,VisibilityMPH,Wind Direction,Wind SpeedMPH,Gust SpeedMPH,PrecipitationIn,Events,Conditions,WindDirDegrees,DateUTC
12:58 AM,46.2,35.4,66,29.95,10.0,Calm,Calm,-,N/A,,Mostly Cloudy,0,2013-03-22 04:58:00
1:58 AM,46.8,37.8,71,29.97,10.0,Calm,Calm,-,N/A,,Overcast,0,2013-03-22 05:58:00
2:48 AM,46.4,37.4,71,29.95,10.0,ENE,3.5,-,N/A,Rain,Light Rain,70,2013-03-22 06:48:00
2:58 AM,47.3,35.2,63,29.95,10.0,East,3.5,-,0.00,Rain,Light Rain,80,2013-03-22 06:58:00
3:05 AM,48.2,32.0,54,29.96,10.0,Calm,Calm,-,N/A,,Overcast,10,2013-03-22 07:05:00
3:58 AM,47.7,33.8,59,29.98,10.0,NNE,8.1,-,0.00,,Overcast,20,2013-03-22 07:58:00
4:58 AM,47.5,27.0,45,29.99,10.0,NNE,8.1,-,N/A,,Overcast,30,2013-03-22 08:58:00
5:58 AM,46.6,25.9,44,30.01,10.0,NNE,10.4,-,N/A,,Mostly Cloudy,30,2013-03-22 09:58:00
6:58 AM,44.4,23.4,43,30.02,10.0,ENE,5.8,-,N/A,,Scattered Clouds,60,2013-03-22 10:58:00
7:58 AM,44.1,23.7,45,30.03,10.0,East,9.2,-,N/A,,Mostly Cloudy,90,2013-03-22 11:58:00
8:58 AM,45.7,24.4,43,30.05,10.0,ESE,9.2,-,N/A,,Overcast,110,2013-03-22 12:58:00
9:58 AM,49.3,25.3,39,30.07,10.0,East,11.5,-,N/A,,Scattered Clouds,80,2013-03-22 13:58:00
10:58 AM,54.0,27.3,36,30.08,10.0,NNE,9.2,-,N/A,,Scattered Clouds,30,2013-03-22 14:58:00
11:58 AM,55.8,29.5,37,30.07,10.0,Variable,5.8,-,N/A,,Overcast,0,2013-03-22 15:58:00
12:58 PM,58.1,30.6,35,30.06,10.0,East,8.1,-,N/A,,Overcast,90,2013-03-22 16:58:00
1:58 PM,62.8,32.4,32,30.02,10.0,ESE,6.9,-,N/A,,Partly Cloudy,120,2013-03-22 17:58:00
2:58 PM,64.8,30.0,27,29.99,10.0,East,8.1,-,N/A,,Scattered Clouds,80,2013-03-22 18:58:00
3:58 PM,64.2,31.5,29,29.99,10.0,NNE,9.2,-,N/A,,Overcast,30,2013-03-22 19:58:00
4:58 PM,63.5,32.4,31,30.00,10.0,NNE,8.1,-,0.00,,Overcast,30,2013-03-22 20:58:00
5:59 PM,63.0,33.1,33,30.00,10.0,NE,10.4,-,N/A,,Overcast,50,2013-03-22 21:59:00
6:59 PM,62.1,34.9,36,29.97,10.0,East,9.2,-,N/A,,Overcast,80,2013-03-22 22:59:00
7:58 PM,59.7,35.6,41,30.00,10.0,East,5.8,-,N/A,,Overcast,90,2013-03-22 23:58:00
8:58 PM,57.4,39.9,52,30.00,10.0,East,6.9,-,N/A,,Overcast,90,2013-03-23 00:58:00
9:58 PM,54.5,41.0,60,30.02,10.0,NNE,6.9,-,N/A,,Clear,30,2013-03-23 01:58:00
10:58 PM,53.1,40.6,63,30.02,10.0,East,5.8,-,N/A,,Clear,90,2013-03-23 02:58:00
11:58 PM,51.6,40.5,66,30.02,10.0,East,5.8,-,N/A,,Partly Cloudy,80,2013-03-23 03:58:00